Location: Sungai Anya
(2.6167°N, 114.0500°E)
Time: 11:45:24
(UTC+00:00)

Meteor 2-10 Rocket - Pass Details

Date: 19 October 2021
Orbit: 733 x 885 km, 81.2° (Epoch: 28 November)

Event Time Altitude Azimuth Distance (km) Brightness Sun altitude
Rises 10:50:16 0° 176° (S) 3,485 7.0 -10.7°
Reaches altitude 10° 10:52:47 10° 171° (S) 2,544 6.2 -11.3°
Maximum altitude 10:58:26 54° 95° (E) 1,058 3.9 -12.7°
Drops below altitude 10° 11:03:59 10° 19° (NNE) 2,493 5.9 -14.0°
Sets 11:06:25 0° 14° (NNE) 3,410 6.6 -14.6°
